Marysville, CA

2:53 AM PDT on August 23, 2019 (GMT -0700)
Yuba County

Weather History for KMYV - June, 2019

Change the Weather History Date:

Wednesday, June 5, 2019

  Actual Average Record
Temperature  
Mean Temperature 80 °F -  
Max Temperature 97 °F 87 °F 105 °F (1970)
Min Temperature 64 °F 58 °F 47 °F (1980)
Cooling Degree Days 15    
Growing Degree Days 30 (Base 50)    
Moisture  
Dew Point 61 °F    
Average Humidity 54    
Maximum Humidity 90    
Minimum Humidity 27    
Precipitation  
Precipitation 0.00 in - - ()
Sea Level Pressure  
Sea Level Pressure 29.82 in    
Wind  
Wind Speed 6 mph (South)    
Max Wind Speed 10 mph    
Max Gust Speed -    
Visibility 10 miles    
Events Rain    
Averages and records for this station are not official NWS values.
T = Trace of Precipitation, MM = Missing Value Source: NWS Daily Summary

Daily Weather History Graph

Daily Weather History Graph

Search for Another Location

Airport or City:

Astronomy

Jun. 05, 2019 Rise Set
Actual Time 5:40 AM PDT 8:28 PM PDT
Civil Twilight 5:09 AM PDT 9:00 PM PDT
Nautical Twilight 4:29 AM PDT 9:40 PM PDT
Astronomical Twilight 3:43 AM PDT 10:26 PM PDT
Moon 7:51 AM PDT (6/5) 11:00 PM PDT (6/5)
Length of Visible Light 15h 51m
Length of Day
14h 48m
Waxing Crescent, 7% of the Moon is Illuminated
Jun 5
Waxing Crescent
Jun 9
First Quarter
Jun 17
Full
Jun 25
Last Quarter
Jul 2
New

Hourly Weather History & Observations

Time (PDT) Temp. Heat Index Dew Point Humidity Pressure Visibility Wind Dir Wind Speed Gust Speed Precip Events Conditions
12:53 AM 73.9 °F - 63.0 °F 68% 29.83 in 10.0 mi East 8.1 mph - N/A   Unknown
1:53 AM 73.0 °F - 63.0 °F 71% 29.83 in 10.0 mi East 5.8 mph - N/A   Unknown
2:53 AM 71.1 °F - 63.0 °F 75% 29.83 in 10.0 mi East 3.5 mph - N/A   Clear
3:53 AM 64.9 °F - 62.1 °F 90% 29.84 in 10.0 mi West 3.5 mph - N/A   Clear
4:53 AM 66.0 °F - 63.0 °F 90% 29.84 in 10.0 mi NNW 4.6 mph - N/A   Clear
5:53 AM 66.0 °F - 63.0 °F 90% 29.84 in 10.0 mi Calm Calm - N/A   Clear
6:53 AM 72.0 °F - 66.9 °F 84% 29.85 in 10.0 mi Calm Calm - N/A   Clear
7:53 AM 77.0 °F - 64.9 °F 66% 29.86 in 10.0 mi ESE 5.8 mph - N/A   Clear
8:53 AM 81.0 °F 82.5 °F 64.0 °F 56% 29.86 in 10.0 mi SSE 4.6 mph - N/A   Clear
9:53 AM 84.0 °F 84.9 °F 63.0 °F 49% 29.86 in 10.0 mi SSW 8.1 mph - N/A   Clear
10:53 AM 87.1 °F 85.3 °F 55.0 °F 33% 29.87 in 10.0 mi SSW 8.1 mph - N/A   Clear
11:53 AM 89.1 °F 87.7 °F 57.0 °F 34% 29.86 in 10.0 mi SSW 5.8 mph - N/A   Clear
12:53 PM 91.0 °F 89.2 °F 55.9 °F 30% 29.85 in 10.0 mi SW 8.1 mph - N/A   Clear
1:53 PM 93.0 °F 91.7 °F 57.0 °F 30% 29.84 in 10.0 mi WSW 8.1 mph - N/A   Clear
2:53 PM 93.9 °F 92.6 °F 57.0 °F 29% 29.82 in 10.0 mi Variable 3.5 mph - N/A   Clear
3:53 PM 96.1 °F 94.8 °F 57.0 °F 27% 29.80 in 10.0 mi South 5.8 mph - N/A   Clear
4:53 PM 96.1 °F 95.6 °F 59.0 °F 29% 29.78 in 10.0 mi SSW 6.9 mph - 0.00 in Rain Light Rain
5:53 PM 95.0 °F 95.2 °F 61.0 °F 32% 29.76 in 10.0 mi SSE 8.1 mph - 0.00 in Rain Light Rain
6:53 PM 93.9 °F 95.6 °F 64.0 °F 37% 29.74 in 10.0 mi South 10.4 mph - 0.00 in Rain Light Rain
7:53 PM 88.0 °F 90.7 °F 66.9 °F 49% 29.75 in 10.0 mi SW 8.1 mph - 0.00 in Rain Light Rain
8:53 PM 82.9 °F 82.8 °F 59.0 °F 44% 29.75 in 10.0 mi SSW 5.8 mph - 0.00 in   Clear
9:53 PM 77.0 °F - 59.0 °F 54% 29.76 in 10.0 mi SSW 4.6 mph - N/A   Unknown
10:53 PM 77.0 °F - 66.0 °F 69% 29.78 in 10.0 mi SSE 6.9 mph - N/A   Unknown
11:53 PM 75.0 °F - 63.0 °F 66% 29.78 in 10.0 mi SSE 9.2 mph - N/A   Clear